Regional Weather Roundup
Issued by NWS Cleveland, OH

Home | Current Version | Previous Version | Graphics & Text | Print | Product List | Glossary On
Versions: 1 2 3 4 5 6 7 8 9 10 11 12 13 14 15 16 17 18 19 20 21 22 23 24 25 26 27 28 29 30 31 32 33 34 35 36 37 38 39 40 41 42 43 44 45 46 47 48 49 50
000
ASUS41 KCLE 280610
RWRCLE
OHIO REGIONAL WEATHER ROUNDUP
NATIONAL WEATHER SERVICE CLEVELAND, OH
200 AM EDT FRI APR 28 2017

NOTE: "FAIR" INDICATES FEW OR NO CLOUDS BELOW 12,000 FEET WITH NO
SIGNIFICANT WEATHER AND/OR OBSTRUCTIONS TO VISIBILITY.

OHZ001>008-015>018-024>027-034-035-043-044-280700-
   NORTHWEST OHIO

CITY           SKY/WX    TMP DP  RH WIND       PRES   REMARKS
DEFIANCE       MOCLDY    48  39  71 W8G16     29.91R
FINDLAY        CLEAR     47  41  80 W10       29.90R
TOLEDO EXPRESS CLOUDY    50  40  68 W16G24    29.89R
TOLEDO EXEC    PTCLDY    51  41  68 W17G28    29.90R
LIMA           CLEAR     48  43  82 W10       29.91R
$$

OHZ009>014-019>023-028>033-038-089-280700-
   NORTHEAST OHIO

CITY           SKY/WX    TMP DP  RH WIND       PRES   REMARKS
CLE-HOPKINS    CLEAR     50  40  68 SW5       29.92R
CLE-LAKEFRONT  CLEAR     49  42  77 SW9       29.89R
CUY CO. ARPT   NOT AVBL
LORAIN-ELYRIA  CLEAR     47  39  74 W5        29.91R
ASHTABULA      CLEAR     49  43  80 W3        29.91R
AKRON-CANTON   CLEAR     50  42  74 N3        29.91R
WOOSTER        CLEAR     45  41  86 CALM      29.92R
MANSFIELD      CLEAR     48  42  80 SW3       29.92R
YOUNGSTOWN     PTCLDY    50  44  80 NW5       29.90R
$$

OHZ042-051>053-060>062-070>072-077>081-280700-
  SOUTHWEST OHIO

CITY           SKY/WX    TMP DP  RH WIND       PRES   REMARKS
CINC-COVINGTON PTCLDY    50  46  86 W3        29.93R
CINC-LUNKEN    PTCLDY    47  47 100 CALM      29.95R
HAMILTON       PTCLDY    45  44  97 CALM      29.95R
DAYTON         PTCLDY    47  43  86 W5        29.93R
WRIGHT-PAT AFB CLEAR     51  46  82 W6        29.92R
DAYTON GENERAL CLEAR     51  45  79 CALM      29.92R
WILMINGTON     PTCLDY    47  46  97 S5        29.93R
$$

OHZ036-037-039>041-045>050-054>059-063>069-073>076-082>088-280700-
  CENTRAL AND SOUTHEAST OHIO

CITY           SKY/WX    TMP DP  RH WIND       PRES   REMARKS
COLUMBUS       CLEAR     51  45  79 CALM      29.92R
OSU AIRPORT    CLEAR     48  44  86 CALM      29.92R
BOLTON FIELD   CLEAR     46  43  89 CALM      29.92R
RICKENBACK AFB CLEAR     48  44  88 S5        29.92R
NEWARK         CLEAR     46  43  89 CALM      29.93R
MARION         CLEAR     49  42  77 W6        29.92R
LANCASTER      CLEAR     49  44  83 CALM      29.93R
ZANESVILLE     CLEAR     51  44  77 SW5       29.93R
NEW PHILLY     NOT AVBL
$$



USA.gov is the U.S. government's official web portal to all federal, state and local government web resources and services.